Location: Seven Kings
(51.5667°N, 0.1000°E)
Time: 11:52:34
(UTC+00:00)

Meteor 2-21 Rocket - Pass Details

Date: 29 October 2020
Orbit: 935 x 968 km, 82.5° (Epoch: 24 November)

Event Time Altitude Azimuth Distance (km) Brightness Sun altitude
Rises 17:11:56 0° 349° (N) 3,661 7.5 -6.0°
Reaches altitude 10° 17:14:28 10° 351° (N) 2,707 6.8 -6.4°
Maximum altitude 17:20:41 78° 78° (ENE) 980 4.4 -7.3°
Drops below altitude 10° 17:26:48 10° 166° (SSE) 2,665 6.8 -8.2°
Sets 17:29:16 0° 167° (SSE) 3,602 7.5 -8.6°
